Simultaneous Nadir Overpasses (SNOs) Predictions

Prediction of SNOs between AURA and NPP Satellite Orbit:

Table of predicted SNOs for the next 14.0 days since TLE Epoch: 7/4/2015
Index Date (AURA) Time (AURA) Lat,Lon (AURA) SZA (AURA ) Date (NPP) Time (NPP) Lat,Lon (NPP) SZA (NPP ) Distance(km) Time Diff (sec)
1 07/06/2015 16:41:10 78.33, 179.75 71.97 07/06/2015 16:40:25 78.32, 179.62 72.03 3.04 45
2 07/06/2015 17:30:24 -78.89, -9.65 108.79 07/06/2015 17:30:56 -78.89, -9.64 108.81 0.25 32
3 07/09/2015 08:57:34 78.50, -63.52 72.05 07/09/2015 08:57:14 78.49, -63.63 72.09 2.58 20
4 07/09/2015 09:46:49 -79.01, 106.94 108.65 07/09/2015 09:47:46 -79.01, 106.97 108.70 0.78 57
5 07/12/2015 00:24:42 -78.24,-116.57 107.26 07/12/2015 00:23:30 -78.23,-116.63 107.19 1.54 72
6 07/12/2015 01:13:56 78.73, 53.62 72.09 07/12/2015 01:14:01 78.73, 53.59 72.09 0.80 5
7 07/14/2015 16:41:03 -78.51, 0.69 107.23 07/14/2015 16:40:16 -78.52, 0.75 107.21 1.43 47
8 07/14/2015 17:30:18 78.95, 170.75 72.18 07/14/2015 17:30:48 78.96, 170.86 72.13 2.39 30
9 07/17/2015 08:57:27 -78.60, 117.04 106.92 07/17/2015 08:57:06 -78.60, 117.02 106.90 0.54 21




NCC Satellite Simultaneous Nadir Overpasses (SNOs) Prediction Service
